Location: Ammerl�gen
(47.2167°N, 9.6000°E)
Time: 03:32:54
(UTC+00:00)

XW-2D - Visible Passes

Search period start: 29 November 2021 00:00
Search period end: 09 December 2021 00:00
Orbit: 504 x 522 km, 97.5° (Epoch: 28 November)

Date Brightness Start Highest point End Pass type
(mag) Time Alt. Az. Time Alt. Az. Time Alt. Az.
29 Nov ? 05:34:52 10° N 05:38:42 81° WNW 05:42:29 10° SSW visible
29 Nov ? 16:17:24 10° SSE 16:21:05 71° ENE 16:24:51 10° N visible
30 Nov ? 05:19:14 10° NNE 05:23:02 66° ESE 05:26:48 10° S visible
30 Nov ? 16:01:54 10° SE 16:05:28 46° ENE 16:09:05 10° N visible
30 Nov ? 17:37:35 10° SW 17:39:44 15° W 17:41:54 10° NW visible
01 Dec ? 05:03:41 10° NNE 05:07:20 42° E 05:10:57 10° S visible
01 Dec ? 17:21:01 10° SW 17:23:56 21° W 17:26:53 10° NW visible
02 Dec ? 04:48:15 10° NE 04:51:36 28° E 04:54:55 10° SSE visible
02 Dec ? 17:04:48 10° SSW 17:08:10 31° W 17:11:34 10° NNW visible
03 Dec ? 04:32:59 10° NE 04:35:49 20° E 04:38:38 10° SE visible
03 Dec ? 06:06:26 10° N 06:09:55 35° WNW 06:13:25 10° SW visible
03 Dec ? 16:48:49 10° S 16:52:26 48° W 16:56:06 10° NNW visible
04 Dec ? 04:18:04 10° ENE 04:20:00 13° E 04:21:55 10° ESE visible
04 Dec ? 05:50:36 10° N 05:54:20 53° WNW 05:58:01 10° SSW visible
04 Dec ? 16:32:59 10° S 16:36:43 75° WSW 16:40:30 10° NNW visible
05 Dec ? 05:34:51 10° N 05:38:41 81° WNW 05:42:28 10° SSW visible
05 Dec ? 16:17:20 10° SSE 16:21:03 71° ENE 16:24:50 10° N visible
06 Dec ? 05:19:11 10° NNE 05:23:00 66° E 05:26:46 10° S visible
06 Dec ? 16:01:49 10° SE 16:05:25 46° ENE 16:09:03 10° N visible
06 Dec ? 17:37:29 10° SW 17:39:41 15° W 17:41:53 10° NW visible
07 Dec ? 05:03:37 10° NNE 05:07:16 42° E 05:10:54 10° S visible
07 Dec ? 17:20:55 10° SW 17:23:51 22° W 17:26:50 10° NW visible
08 Dec ? 04:48:10 10° NE 04:51:30 28° E 04:54:50 10° SSE visible
08 Dec ? 06:22:16 10° NNW 06:25:25 25° WNW 06:28:33 10° WSW visible
08 Dec ? 17:04:41 10° SSW 17:08:04 32° W 17:11:30 10° NNW visible
